Location: Baumgarten
(49.0970°N, 12.7493°E)
Time: 08:21:50
(UTC+00:00)

Cosmos 1110 Rocket - Pass Details

Date: 05 July 2020
Orbit: 752 x 782 km, 74.0° (Epoch: 05 August)

Event Time Altitude Azimuth Distance (km) Brightness Sun altitude
Rises 23:29:20 0° 337° (NNW) 3,251 8.4 -18.2°
Reaches altitude 10° 23:31:43 10° 339° (NNW) 2,325 7.5 -18.1°
Maximum altitude 23:37:01 75° 65° (ENE) 809 4.1 -18.1°
Enters shadow 23:40:14 24° 147° (SSE) 1,560 5.2 -18.0°
